Home   Weather   Meppen   Past weeks

Flag for Germany Past Weather in Meppen, Lower Saxony, Germany — Yesterday and Last 2 Weeks

Now
67 °F

Mild.


Feels Like: 67 °F
Forecast: 54 / 64 °F
Wind: 3 mph from Southwest

Location: Meppen

Current Time: Aug 18, 2017 at 2:57:58 pm

Latest Report: Aug 18, 2017 at 1:00 pm


Visibility: 7 mi

Pressure: 29.87 "Hg

Humidity: 77%

Dew Point: 60 °F

Location of MeppenLocation

Past Weather in Meppen — Graph

°F

Meppen Temperature Yesterday

Maximum temperature yesterday: 68 °F (at 1:00 pm)
Minimum temperature yesterday: 54 °F (at 6:00 am)
Average temperature yesterday: 61 °F

High & Low Weather Summary for the Past Weeks

 TemperatureHumidityPressure
High77 °F (Aug 15, 3:00 pm)97% (Aug 7, 3:00 am)30.22 "Hg (Aug 7, 3:00 am)
Low47 °F (Aug 7, 6:00 am)41% (Aug 7, 3:00 pm)29.74 "Hg (Aug 3, 1:00 pm)
Average62 °F77%30.01 "Hg
* Reported Aug 3 1:00 pm — Aug 18 1:00 pm, Meppen. Weather by CustomWeather, © 2017

Note: Actual official high and low records may vary slightly from our data, if they occured in-between our weather recording intervals... More about our weather records

Advertising

Meppen Weather History for the Previous 24 Hours

Scroll right to see more
 ConditionsComfort  
Time TempWeatherWind HumidityBarometerVisibility
1:00 pm
Fri, Aug 18
67 °FMild.3 mph77%29.87 "Hg7 mi
12:00 pm66 °FMild.5 mph80%29.88 "Hg7 mi
10:00 am64 °FLow clouds.3 mph86%29.89 "Hg12 mi
9:00 am62 °FOvercast.2 mph91%29.89 "Hg7 mi
7:00 am60 °FFog.1 mph95%29.90 "Hg4 mi
6:00 am60 °FFog.2 mph95%29.90 "Hg3 mi
4:00 am62 °FCool.2 mph94%29.91 "Hg5 mi
3:00 am62 °FCool.2 mph93%29.92 "Hg4 mi
1:00 am63 °FMild.2 mph93%29.93 "Hg6 mi
12:00 am64 °FMild.3 mph92%29.93 "Hg6 mi
10:00 pm
Thu, Aug 17
64 °FMild.2 mph92%29.94 "Hg5 mi
9:00 pm65 °FMild.2 mph92%29.94 "Hg5 mi
7:00 pm65 °FMild.3 mph91%29.94 "Hg5 mi
6:00 pm64 °FMild.3 mph93%29.94 "Hg5 mi
4:00 pm63 °FMild.3 mph91%29.96 "Hg2 mi
3:00 pm64 °FMild.6 mph89%29.95 "Hg2 mi
Weather by CustomWeather, © 2017

See weather overviewHow to use our weather pages